| time (UTC) | temp C | wind direction | speed KPH | gust KPH | rain 1hr cm | rain 24hr cm | rain mn cm | humidity % | barometer mb |
| 20260507073017 | 10 | 5 | 0.0 | 0.0 | 0.00 | 0.00 | 0.00 | 59 | 1014.2 |
| 20260507072515 | 10 | 24 | 0.0 | 0.0 | 0.00 | 0.00 | 0.00 | 52 | 1014.2 |
| 20260507072017 | 10 | 178 | 0.0 | 0.0 | 0.00 | 0.00 | 0.00 | 50 | 1014.2 |
| 20260507071456 | 10 | 148 | 0.0 | 0.0 | 0.00 | 0.00 | 0.00 | 49 | 1014.2 |
| 20260507070958 | 10 | 20 | 0.0 | 0.0 | 0.00 | 0.00 | 0.00 | 47 | 1014.2 |
| 20260507070457 | 10 | 5 | 0.0 | 0.0 | 0.00 | 0.00 | 0.00 | 43 | 1014.1 |
| 20260507065936 | 9 | 338 | 0.0 | 0.0 | 0.00 | 0.00 | 0.00 | 42 | 1014.2 |
| 20260507065409 | 9 | 9 | 0.0 | 0.0 | 0.00 | 0.00 | 0.00 | 37 | 1014.1 |
| 20260507064909 | 9 | 69 | 0.0 | 1.6 | 0.00 | 0.00 | 0.00 | 29 | 1014.1 |
| 20260507064819 | 9 | 5 | 0.0 | 1.6 | 0.00 | 0.00 | 0.00 | 21 | 1014.1 |
| 20260507063834 | 8 | 0 | 0.0 | 3.2 | 0.00 | 0.00 | 0.00 | 17 | 1014.1 |
| 20260507063337 | 8 | 11 | 0.0 | 3.2 | 0.00 | 0.00 | 0.00 | 11 | 1014.1 |
| 20260507063042 | 8 | 327 | 0.0 | 0.0 | 0.00 | 0.00 | 0.00 | 4 | 1014.0 |
| 20260507062318 | 8 | 315 | 0.0 | 0.0 | 0.00 | 0.00 | 0.00 | 100 | 1014.0 |
| 20260507061820 | 8 | 5 | 0.0 | 1.6 | 0.00 | 0.00 | 0.00 | 100 | 1013.9 |
| 20260507061303 | 8 | 311 | 0.0 | 1.6 | 0.00 | 0.00 | 0.00 | 100 | 1013.8 |
| 20260507060753 | 7 | 348 | 0.0 | 0.0 | 0.00 | 0.00 | 0.00 | 100 | 1013.9 |
| 20260507060247 | 7 | 348 | 0.0 | 0.0 | 0.00 | 0.00 | 0.00 | 100 | 1013.9 |
| 20260507055736 | 7 | 348 | 0.0 | 0.0 | 0.00 | 0.00 | 0.00 | 100 | 1013.9 |
| 20260507055216 | 7 | 348 | 0.0 | 0.0 | 0.00 | 0.00 | 0.00 | 100 | 1013.8 |
| 20260507054653 | 7 | 348 | 0.0 | 0.0 | 0.00 | 0.00 | 0.00 | 100 | 1013.7 |
| 20260507054400 | 7 | 348 | 0.0 | 0.0 | 0.00 | 0.00 | 0.00 | 100 | 1013.7 |
| 20260507053903 | 6 | 348 | 0.0 | 0.0 | 0.00 | 0.00 | 0.00 | 100 | 1013.8 |
| 20260507053401 | 6 | 348 | 0.0 | 0.0 | 0.00 | 0.00 | 0.00 | 100 | 1013.7 |
| 20260507052847 | 6 | 348 | 0.0 | 0.0 | 0.00 | 0.00 | 0.00 | 100 | 1013.7 |
| 20260507052129 | 6 | 348 | 0.0 | 0.0 | 0.00 | 0.00 | 0.00 | 100 | 1013.6 |
| 20260507051605 | 6 | 348 | 0.0 | 0.0 | 0.00 | 0.00 | 0.00 | 100 | 1013.5 |
| 20260507051028 | 6 | 348 | 0.0 | 0.0 | 0.00 | 0.00 | 0.00 | 100 | 1013.5 |
| 20260507050514 | 6 | 348 | 0.0 | 0.0 | 0.00 | 0.00 | 0.00 | 100 | 1013.4 |
| 20260507050013 | 6 | 348 | 0.0 | 0.0 | 0.00 | 0.00 | 0.00 | 100 | 1013.4 |
| 20260507045459 | 6 | 348 | 0.0 | 0.0 | 0.00 | 0.00 | 0.00 | 100 | 1013.4 |
| 20260507045220 | 6 | 348 | 0.0 | 0.0 | 0.00 | 0.00 | 0.00 | 100 | 1013.3 |
| 20260507044444 | 5 | 348 | 0.0 | 0.0 | 0.00 | 0.00 | 0.00 | 100 | 1013.3 |
| 20260507043941 | 5 | 348 | 0.0 | 0.0 | 0.00 | 0.00 | 0.00 | 100 | 1013.2 |
| 20260507043440 | 5 | 348 | 0.0 | 0.0 | 0.00 | 0.00 | 0.00 | 100 | 1013.2 |
| 20260507042924 | 5 | 348 | 0.0 | 0.0 | 0.00 | 0.00 | 0.00 | 100 | 1013.1 |
| 20260507042608 | 5 | 348 | 0.0 | 0.0 | 0.00 | 0.00 | 0.00 | 100 | 1013.1 |
| 20260507041804 | 5 | 348 | 0.0 | 0.0 | 0.00 | 0.00 | 0.00 | 100 | 1013.0 |
| 20260507041251 | 5 | 348 | 0.0 | 0.0 | 0.00 | 0.00 | 0.00 | 100 | 1013.0 |
| 20260507040748 | 5 | 348 | 0.0 | 0.0 | 0.00 | 0.00 | 0.00 | 100 | 1013.0 |
| 20260507040504 | 5 | 348 | 0.0 | 0.0 | 0.00 | 0.00 | 0.00 | 100 | 1013.0 |
| 20260507035725 | 5 | 348 | 0.0 | 0.0 | 0.00 | 0.00 | 0.00 | 100 | 1012.9 |
| 20260507035147 | 5 | 348 | 0.0 | 0.0 | 0.00 | 0.00 | 0.00 | 100 | 1013.0 |
| 20260507034635 | 6 | 348 | 0.0 | 0.0 | 0.00 | 0.00 | 0.00 | 100 | 1012.9 |
| 20260507034402 | 6 | 348 | 0.0 | 0.0 | 0.00 | 0.00 | 0.00 | 100 | 1012.9 |
| 20260507033601 | 6 | 348 | 0.0 | 0.0 | 0.00 | 0.00 | 0.00 | 100 | 1012.8 |
| 20260507033053 | 6 | 348 | 0.0 | 0.0 | 0.00 | 0.00 | 0.00 | 100 | 1012.8 |
| 20260507032532 | 6 | 348 | 0.0 | 0.0 | 0.00 | 0.00 | 0.00 | 100 | 1012.8 |
| 20260507032034 | 6 | 348 | 0.0 | 0.0 | 0.00 | 0.00 | 0.00 | 100 | 1012.8 |
| 20260507031529 | 6 | 348 | 0.0 | 0.0 | 0.00 | 0.00 | 0.00 | 100 | 1012.8 |
| 20260507031027 | 6 | 348 | 0.0 | 0.0 | 0.00 | 0.00 | 0.00 | 100 | 1012.7 |
| 20260507030511 | 6 | 348 | 0.0 | 0.0 | 0.00 | 0.00 | 0.00 | 100 | 1012.7 |
| 20260507025958 | 6 | 348 | 0.0 | 0.0 | 0.00 | 0.00 | 0.00 | 100 | 1012.7 |
| 20260507025444 | 6 | 348 | 0.0 | 0.0 | 0.00 | 0.00 | 0.00 | 100 | 1012.7 |
| 20260507024946 | 6 | 348 | 0.0 | 0.0 | 0.00 | 0.00 | 0.00 | 100 | 1012.7 |
| 20260507024440 | 6 | 348 | 0.0 | 0.0 | 0.00 | 0.00 | 0.00 | 100 | 1012.7 |
| 20260507023937 | 6 | 348 | 0.0 | 0.0 | 0.00 | 0.00 | 0.00 | 100 | 1012.6 |
| 20260507023437 | 6 | 348 | 0.0 | 0.0 | 0.00 | 0.00 | 0.00 | 100 | 1012.6 |
| 20260507022938 | 6 | 348 | 0.0 | 0.0 | 0.00 | 0.00 | 0.00 | 100 | 1012.6 |
| 20260507022408 | 6 | 348 | 0.0 | 0.0 | 0.00 | 0.00 | 0.00 | 100 | 1012.5 |
| 20260507021905 | 6 | 348 | 0.0 | 0.0 | 0.00 | 0.00 | 0.00 | 100 | 1012.6 |
| 20260507021341 | 7 | 348 | 0.0 | 0.0 | 0.00 | 0.00 | 0.00 | 100 | 1012.6 |
| 20260507020807 | 7 | 348 | 0.0 | 0.0 | 0.00 | 0.00 | 0.00 | 100 | 1012.5 |
| 20260507020306 | 7 | 348 | 0.0 | 0.0 | 0.00 | 0.00 | 0.00 | 3 | 1012.5 |
| 20260507015800 | 7 | 348 | 0.0 | 0.0 | 0.00 | 0.00 | 0.00 | 5 | 1012.4 |
| 20260507015239 | 7 | 348 | 0.0 | 0.0 | 0.00 | 0.00 | 0.00 | 8 | 1012.4 |
| 20260507014733 | 7 | 348 | 0.0 | 0.0 | 0.00 | 0.00 | 0.00 | 8 | 1012.3 |
| 20260507014231 | 7 | 348 | 0.0 | 0.0 | 0.00 | 0.00 | 0.00 | 8 | 1012.3 |
| 20260507013727 | 7 | 348 | 0.0 | 0.0 | 0.00 | 0.00 | 0.00 | 8 | 1012.2 |
| 20260507013229 | 7 | 348 | 0.0 | 0.0 | 0.00 | 0.00 | 0.00 | 9 | 1012.2 |
| 20260507012724 | 7 | 348 | 0.0 | 0.0 | 0.00 | 0.00 | 0.00 | 9 | 1012.2 |
| 20260507012224 | 7 | 348 | 0.0 | 0.0 | 0.00 | 0.00 | 0.00 | 10 | 1012.2 |
| 20260507011640 | 7 | 348 | 0.0 | 0.0 | 0.00 | 0.00 | 0.00 | 11 | 1012.3 |
| 20260507011119 | 7 | 348 | 0.0 | 0.0 | 0.00 | 0.00 | 0.00 | 12 | 1012.3 |
| 20260507010620 | 7 | 348 | 0.0 | 0.0 | 0.00 | 0.00 | 0.00 | 13 | 1012.2 |
| 20260507010056 | 7 | 348 | 0.0 | 0.0 | 0.00 | 0.00 | 0.00 | 13 | 1012.2 |
| 20260507005539 | 7 | 348 | 0.0 | 0.0 | 0.00 | 0.00 | 0.00 | 15 | 1012.3 |
| 20260507005032 | 7 | 190 | 0.0 | 0.0 | 0.00 | 0.00 | 0.00 | 15 | 1012.2 |
| 20260507004737 | 7 | 9 | 0.0 | 0.0 | 0.00 | 0.00 | 0.00 | 17 | 1012.2 |
| 20260507003945 | 7 | 9 | 0.0 | 0.0 | 0.00 | 0.00 | 0.00 | 17 | 1012.2 |
| 20260507003444 | 7 | 19 | 0.0 | 0.0 | 0.00 | 0.00 | 0.00 | 17 | 1012.2 |
| 20260507002941 | 8 | 22 | 0.0 | 0.0 | 0.00 | 0.00 | 0.00 | 17 | 1012.2 |
| 20260507002442 | 8 | 27 | 0.0 | 0.0 | 0.00 | 0.00 | 0.00 | 16 | 1012.1 |
| 20260507001904 | 8 | 18 | 0.0 | 0.0 | 0.00 | 0.00 | 0.00 | 16 | 1012.1 |
| 20260507001606 | 8 | 11 | 0.0 | 0.0 | 0.00 | 0.00 | 0.00 | 16 | 1012.1 |
| 20260507000837 | 8 | 11 | 0.0 | 0.0 | 0.00 | 0.00 | 0.00 | 15 | 1012.0 |
| 20260507000330 | 8 | 348 | 0.0 | 0.0 | 0.00 | 0.00 | 0.00 | 14 | 1012.0 |
| 20260506235332 | 8 | 18 | 0.0 | 0.0 | 0.00 | 0.00 | 0.00 | 14 | 1012.1 |
| 20260506234817 | 8 | 24 | 0.0 | 0.0 | 0.00 | 0.00 | 0.00 | 13 | 1012.1 |
| 20260506234325 | 8 | 355 | 0.0 | 0.0 | 0.00 | 0.00 | 0.00 | 12 | 1012.1 |
| 20260506234251 | 8 | 288 | 0.0 | 0.0 | 0.00 | 0.00 | 0.00 | 12 | 1012.2 |
| 20260506233516 | 8 | 337 | 0.0 | 0.0 | 0.00 | 0.00 | 0.00 | 12 | 1012.1 |
| 20260506232743 | 8 | 5 | 0.0 | 0.0 | 0.00 | 0.00 | 0.00 | 14 | 1012.1 |
| 20260506232239 | 8 | 5 | 0.0 | 0.0 | 0.00 | 0.00 | 0.00 | 14 | 1012.1 |
| 20260506231950 | 8 | 348 | 0.0 | 0.0 | 0.00 | 0.00 | 0.00 | 15 | 1012.1 |
| 20260506231233 | 8 | 5 | 0.0 | 1.6 | 0.00 | 0.00 | 0.00 | 15 | 1012.0 |
| 20260506230730 | 8 | 332 | 0.0 | 1.6 | 0.00 | 0.00 | 0.00 | 17 | 1012.0 |
| 20260506230223 | 8 | 13 | 0.0 | 1.6 | 0.00 | 0.00 | 0.00 | 17 | 1012.0 |
| 20260506225722 | 8 | 20 | 0.0 | 1.6 | 0.00 | 0.00 | 0.00 | 17 | 1012.0 |
| 20260506225214 | 8 | 30 | 0.0 | 0.0 | 0.00 | 0.00 | 0.00 | 17 | 1012.0 |
| 20260506224655 | 8 | 329 | 0.0 | 0.0 | 0.00 | 0.00 | 0.00 | 18 | 1012.0 |
| 20260506224156 | 8 | 346 | 0.0 | 0.0 | 0.00 | 0.00 | 0.00 | 19 | 1011.9 |
| 20260506223641 | 8 | 346 | 0.0 | 0.0 | 0.00 | 0.00 | 0.00 | 19 | 1011.9 |
| 20260506223136 | 8 | 5 | 0.0 | 1.6 | 0.00 | 0.00 | 0.00 | 21 | 1011.8 |
| 20260506222607 | 9 | 74 | 0.0 | 1.6 | 0.00 | 0.00 | 0.00 | 22 | 1011.9 |
| 20260506222107 | 9 | 13 | 0.0 | 0.0 | 0.00 | 0.00 | 0.00 | 24 | 1011.9 |
| 20260506221608 | 9 | 135 | 0.0 | 0.0 | 0.00 | 0.00 | 0.00 | 26 | 1011.8 |
| 20260506221108 | 9 | 326 | 0.0 | 0.0 | 0.00 | 0.00 | 0.00 | 29 | 1011.8 |
| 20260506220603 | 9 | 331 | 0.0 | 0.0 | 0.00 | 0.00 | 0.00 | 32 | 1011.7 |
| 20260506220056 | 9 | 270 | 0.0 | 0.0 | 0.00 | 0.00 | 0.00 | 35 | 1011.8 |
| 20260506215552 | 9 | 270 | 0.0 | 1.6 | 0.00 | 0.00 | 0.00 | 38 | 1011.8 |
| 20260506215051 | 9 | 355 | 0.0 | 1.6 | 0.00 | 0.00 | 0.00 | 40 | 1011.7 |
| 20260506214543 | 10 | 5 | 0.0 | 4.8 | 0.00 | 0.00 | 0.00 | 41 | 1011.6 |
| 20260506214305 | 10 | 17 | 0.0 | 0.0 | 0.00 | 0.00 | 0.00 | 45 | 1011.6 |
| 20260506213544 | 10 | 336 | 0.0 | 0.0 | 0.00 | 0.00 | 0.00 | 48 | 1011.5 |
| 20260506213040 | 10 | 342 | 0.0 | 0.0 | 0.00 | 0.00 | 0.00 | 52 | 1011.5 |
| 20260506212529 | 10 | 332 | 0.0 | 1.6 | 0.00 | 0.00 | 0.00 | 54 | 1011.4 |
| 20260506212024 | 10 | 283 | 0.0 | 1.6 | 0.00 | 0.00 | 0.00 | 56 | 1011.4 |
| 20260506211514 | 10 | 350 | 0.0 | 0.0 | 0.00 | 0.00 | 0.00 | 59 | 1011.4 |
| 20260506210955 | 10 | 355 | 0.0 | 0.0 | 0.00 | 0.00 | 0.00 | 60 | 1011.3 |
| 20260506210452 | 10 | 32 | 0.0 | 3.2 | 0.00 | 0.00 | 0.00 | 61 | 1011.3 |
| 20260506205944 | 10 | 212 | 0.0 | 3.2 | 0.00 | 0.00 | 0.00 | 61 | 1011.2 |
| 20260506205438 | 10 | 329 | 0.0 | 0.0 | 0.00 | 0.00 | 0.00 | 62 | 1011.2 |
| 20260506204919 | 10 | 30 | 0.0 | 3.2 | 0.00 | 0.00 | 0.00 | 62 | 1011.2 |
| 20260506204419 | 10 | 283 | 0.0 | 3.2 | 0.00 | 0.00 | 0.00 | 62 | 1011.1 |
| 20260506203919 | 10 | 151 | 0.0 | 1.6 | 0.00 | 0.00 | 0.00 | 62 | 1011.1 |
| 20260506203909 | 11 | 255 | 0.0 | 0.0 | 0.00 | 0.00 | 0.00 | 62 | 1011.1 |
| 20260506202919 | 11 | 0 | 0.0 | 0.0 | 0.00 | 0.00 | 0.00 | 62 | 1011.0 |
| 20260506202416 | 11 | 34 | 0.0 | 0.0 | 0.00 | 0.00 | 0.00 | 62 | 1011.0 |
| 20260506201903 | 11 | 78 | 0.0 | 0.0 | 0.00 | 0.00 | 0.00 | 62 | 1010.9 |
| 20260506201403 | 11 | 350 | 0.0 | 0.0 | 0.00 | 0.00 | 0.00 | 62 | 1010.9 |
| 20260506201323 | 11 | 350 | 0.0 | 0.0 | 0.00 | 0.00 | 0.00 | 62 | 1010.9 |
| 20260506200335 | 11 | 350 | 0.0 | 0.0 | 0.00 | 0.00 | 0.00 | 62 | 1010.9 |
| 20260506195831 | 11 | 109 | 0.0 | 1.6 | 0.00 | 0.00 | 0.00 | 62 | 1010.7 |
| 20260506195331 | 11 | 265 | 0.0 | 1.6 | 0.00 | 0.00 | 0.00 | 62 | 1010.7 |
| 20260506194834 | 11 | 346 | 0.0 | 1.6 | 0.00 | 0.00 | 0.00 | 62 | 1010.6 |
| 20260506194331 | 11 | 279 | 0.0 | 1.6 | 0.00 | 0.00 | 0.00 | 62 | 1010.6 |
| 20260506194044 | 11 | 344 | 0.0 | 1.6 | 0.00 | 0.00 | 0.00 | 62 | 1010.5 |
| 20260506193321 | 11 | 254 | 0.0 | 0.0 | 0.00 | 0.00 | 0.00 | 62 | 1010.5 |
| 20260506193035 | 12 | 109 | 0.0 | 0.0 | 0.00 | 0.00 | 0.00 | 62 | 1010.4 |
| 20260506192311 | 12 | 133 | 0.0 | 3.2 | 0.00 | 0.00 | 0.00 | 62 | 1010.3 |
| 20260506192034 | 12 | 355 | 0.0 | 3.2 | 0.00 | 0.00 | 0.00 | 62 | 1010.3 |
| 20260506191308 | 12 | 307 | 0.0 | 0.0 | 0.00 | 0.00 | 0.00 | 62 | 1010.1 |
| 20260506190749 | 12 | 324 | 0.0 | 4.8 | 0.00 | 0.00 | 0.00 | 61 | 1010.0 |
| 20260506190234 | 12 | 355 | 0.0 | 4.8 | 0.00 | 0.00 | 0.00 | 61 | 1009.9 |
| 20260506185728 | 12 | 351 | 0.0 | 6.4 | 0.00 | 0.00 | 0.00 | 61 | 1009.8 |
| 20260506185227 | 12 | 313 | 0.0 | 6.4 | 0.00 | 0.00 | 0.00 | 61 | 1009.8 |
| 20260506184727 | 12 | 287 | 0.0 | 3.2 | 0.00 | 0.00 | 0.00 | 61 | 1009.7 |
| 20260506184435 | 12 | 347 | 0.0 | 1.6 | 0.00 | 0.00 | 0.00 | 61 | 1009.6 |
| 20260506183710 | 12 | 333 | 0.0 | 4.8 | 0.00 | 0.00 | 0.00 | 61 | 1009.6 |
| 20260506183151 | 13 | 348 | 0.0 | 4.8 | 0.00 | 0.00 | 0.00 | 61 | 1009.6 |
| 20260506182909 | 13 | 331 | 0.0 | 3.2 | 0.00 | 0.00 | 0.00 | 61 | 1009.5 |
| 20260506182147 | 13 | 19 | 0.0 | 3.2 | 0.00 | 0.00 | 0.00 | 61 | 1009.5 |
| 20260506181644 | 13 | 43 | 0.0 | 3.2 | 0.00 | 0.00 | 0.00 | 61 | 1009.4 |
| 20260506181404 | 13 | 327 | 0.0 | 1.6 | 0.00 | 0.00 | 0.00 | 61 | 1009.4 |
| 20260506180643 | 13 | 351 | 0.0 | 1.6 | 0.00 | 0.00 | 0.00 | 61 | 1009.3 |
| 20260506180132 | 13 | 348 | 0.0 | 8.0 | 0.00 | 0.00 | 0.00 | 61 | 1009.3 |
| 20260506175603 | 13 | 355 | 0.0 | 8.0 | 0.00 | 0.00 | 0.00 | 61 | 1009.3 |
| 20260506175103 | 13 | 355 | 0.0 | 1.6 | 0.00 | 0.00 | 0.00 | 61 | 1009.2 |
| 20260506174559 | 12 | 208 | 0.0 | 1.6 | 0.00 | 0.00 | 0.00 | 62 | 1009.1 |
| 20260506174048 | 12 | 17 | 0.0 | 1.6 | 0.00 | 0.00 | 0.00 | 61 | 1009.0 |
| 20260506173547 | 12 | 76 | 0.0 | 1.6 | 0.00 | 0.00 | 0.00 | 61 | 1009.0 |
| 20260506173046 | 12 | 350 | 0.0 | 0.0 | 0.00 | 0.00 | 0.00 | 61 | 1009.0 |
| 20260506172536 | 13 | 355 | 0.0 | 0.0 | 0.00 | 0.00 | 0.00 | 61 | 1008.9 |
| 20260506172031 | 13 | 355 | 0.0 | 0.0 | 0.00 | 0.00 | 0.00 | 61 | 1008.9 |
| 20260506171527 | 13 | 329 | 0.0 | 0.0 | 0.00 | 0.00 | 0.00 | 61 | 1008.9 |
| 20260506171018 | 13 | 294 | 0.0 | 0.0 | 0.00 | 0.00 | 0.00 | 60 | 1008.9 |
| 20260506170521 | 13 | 258 | 0.0 | 4.8 | 0.00 | 0.00 | 0.00 | 60 | 1008.8 |
| 20260506170022 | 13 | 215 | 0.0 | 4.8 | 0.00 | 0.00 | 0.00 | 60 | 1008.8 |
| 20260506165506 | 13 | 277 | 0.0 | 3.2 | 0.00 | 0.00 | 0.00 | 59 | 1008.7 |
| 20260506164952 | 13 | 330 | 0.0 | 3.2 | 0.00 | 0.00 | 0.00 | 59 | 1008.7 |
| 20260506164443 | 13 | 297 | 0.0 | 0.0 | 0.00 | 0.00 | 0.00 | 59 | 1008.7 |
| 20260506163936 | 13 | 296 | 0.0 | 0.0 | 0.00 | 0.00 | 0.00 | 58 | 1008.6 |
| 20260506163658 | 13 | 285 | 0.0 | 0.0 | 0.00 | 0.00 | 0.00 | 58 | 1008.6 |
| 20260506162925 | 13 | 309 | 0.0 | 0.0 | 0.00 | 0.00 | 0.00 | 57 | 1008.6 |
| 20260506162416 | 13 | 309 | 0.0 | 0.0 | 0.00 | 0.00 | 0.00 | 56 | 1008.5 |
| 20260506161914 | 13 | 250 | 0.0 | 0.0 | 0.00 | 0.00 | 0.00 | 56 | 1008.5 |
| 20260506161416 | 14 | 20 | 0.0 | 0.0 | 0.00 | 0.00 | 0.00 | 56 | 1008.5 |
| 20260506160912 | 14 | 319 | 0.0 | 0.0 | 0.00 | 0.00 | 0.00 | 55 | 1008.5 |
| 20260506160359 | 14 | 226 | 0.0 | 1.6 | 0.00 | 0.00 | 0.00 | 55 | 1008.5 |
| 20260506155847 | 14 | 284 | 0.0 | 1.6 | 0.00 | 0.00 | 0.00 | 54 | 1008.5 |
| 20260506155600 | 14 | 273 | 0.0 | 0.0 | 0.00 | 0.00 | 0.00 | 54 | 1008.5 |
| 20260506154808 | 14 | 246 | 0.0 | 0.0 | 0.00 | 0.00 | 0.00 | 55 | 1008.5 |
| 20260506154309 | 14 | 348 | 0.0 | 1.6 | 0.00 | 0.00 | 0.00 | 53 | 1008.6 |
| 20260506153747 | 14 | 252 | 0.0 | 1.6 | 0.00 | 0.00 | 0.00 | 54 | 1008.6 |
| 20260506153247 | 14 | 249 | 0.0 | 1.6 | 0.00 | 0.00 | 0.00 | 54 | 1008.5 |
| 20260506152747 | 14 | 279 | 0.0 | 1.6 | 0.00 | 0.00 | 0.00 | 53 | 1008.5 |
| 20260506152245 | 14 | 286 | 0.0 | 1.6 | 0.00 | 0.00 | 0.00 | 52 | 1008.4 |
| 20260506151744 | 14 | 284 | 0.0 | 1.6 | 0.00 | 0.00 | 0.00 | 52 | 1008.4 |
| 20260506151238 | 14 | 296 | 0.0 | 0.0 | 0.00 | 0.00 | 0.00 | 50 | 1008.4 |
| 20260506150742 | 14 | 309 | 0.0 | 0.0 | 0.00 | 0.00 | 0.00 | 50 | 1008.3 |
| 20260506150220 | 14 | 215 | 0.0 | 0.0 | 0.00 | 0.00 | 0.00 | 50 | 1008.4 |
| 20260506145648 | 14 | 318 | 0.0 | 1.6 | 0.00 | 0.00 | 0.00 | 50 | 1008.4 |
| 20260506145139 | 14 | 239 | 0.0 | 0.0 | 0.00 | 0.00 | 0.00 | 50 | 1008.3 |
| 20260506144640 | 14 | 240 | 0.0 | 6.4 | 0.00 | 0.00 | 0.00 | 49 | 1008.4 |
| 20260506144140 | 15 | 251 | 0.0 | 6.4 | 0.00 | 0.00 | 0.00 | 48 | 1008.4 |
| 20260506143638 | 15 | 344 | 0.0 | 0.0 | 0.00 | 0.00 | 0.00 | 49 | 1008.3 |
| 20260506143132 | 15 | 348 | 0.0 | 3.2 | 0.00 | 0.00 | 0.00 | 47 | 1008.2 |
| 20260506142610 | 15 | 296 | 0.0 | 3.2 | 0.00 | 0.00 | 0.00 | 48 | 1008.3 |
| 20260506142110 | 15 | 317 | 0.0 | 0.0 | 0.00 | 0.00 | 0.00 | 48 | 1008.2 |
| 20260506141555 | 15 | 225 | 0.0 | 0.0 | 0.00 | 0.00 | 0.00 | 48 | 1008.3 |
| 20260506141048 | 15 | 227 | 0.0 | 0.0 | 0.00 | 0.00 | 0.00 | 49 | 1008.2 |
| 20260506140539 | 15 | 200 | 0.0 | 0.0 | 0.00 | 0.00 | 0.00 | 45 | 1008.2 |
| 20260506140033 | 15 | 80 | 0.0 | 0.0 | 0.00 | 0.00 | 0.00 | 46 | 1008.2 |
| 20260506135746 | 15 | 294 | 0.0 | 6.4 | 0.00 | 0.00 | 0.00 | 48 | 1008.2 |
| 20260506135011 | 15 | 306 | 0.0 | 9.7 | 0.00 | 0.00 | 0.00 | 45 | 1008.2 |
| 20260506134724 | 15 | 244 | 0.0 | 9.7 | 0.00 | 0.00 | 0.00 | 44 | 1008.2 |
| 20260506134000 | 16 | 314 | 0.0 | 6.4 | 0.00 | 0.00 | 0.00 | 45 | 1008.2 |
| 20260506133443 | 16 | 220 | 0.0 | 6.4 | 0.00 | 0.00 | 0.00 | 43 | 1008.2 |
| 20260506132944 | 16 | 268 | 0.0 | 1.6 | 0.00 | 0.00 | 0.00 | 46 | 1008.2 |
| 20260506132434 | 16 | 156 | 0.0 | 1.6 | 0.00 | 0.00 | 0.00 | 47 | 1008.1 |
| 20260506131924 | 16 | 211 | 0.0 | 6.4 | 0.00 | 0.00 | 0.00 | 48 | 1008.0 |
| 20260506131423 | 16 | 235 | 0.0 | 6.4 | 0.00 | 0.00 | 0.00 | 46 | 1008.0 |
| 20260506130923 | 16 | 294 | 0.0 | 3.2 | 0.00 | 0.00 | 0.00 | 48 | 1008.2 |
| 20260506130422 | 16 | 297 | 0.0 | 1.6 | 0.00 | 0.00 | 0.00 | 48 | 1008.1 |
| 20260506125920 | 16 | 17 | 0.0 | 1.6 | 0.00 | 0.00 | 0.00 | 49 | 1008.0 |
| 20260506125416 | 16 | 204 | 0.0 | 1.6 | 0.00 | 0.00 | 0.00 | 49 | 1008.0 |
| 20260506124908 | 16 | 271 | 0.0 | 1.6 | 0.00 | 0.00 | 0.00 | 51 | 1008.0 |
| 20260506124408 | 15 | 343 | 0.0 | 1.6 | 0.00 | 0.00 | 0.00 | 49 | 1008.0 |
| 20260506123847 | 16 | 279 | 0.0 | 4.8 | 0.00 | 0.00 | 0.00 | 51 | 1008.1 |
| 20260506123346 | 15 | 177 | 0.0 | 4.8 | 0.00 | 0.00 | 0.00 | 49 | 1008.0 |
| 20260506122847 | 15 | 242 | 0.0 | 0.0 | 0.00 | 0.00 | 0.00 | 50 | 1008.1 |
| 20260506122349 | 15 | 319 | 0.0 | 1.6 | 0.00 | 0.00 | 0.00 | 50 | 1008.0 |
| 20260506121843 | 15 | 257 | 0.0 | 3.2 | 0.00 | 0.00 | 0.00 | 51 | 1007.9 |
| 20260506121336 | 15 | 315 | 0.0 | 3.2 | 0.00 | 0.00 | 0.00 | 51 | 1008.0 |
| 20260506120836 | 15 | 344 | 0.0 | 4.8 | 0.00 | 0.00 | 0.00 | 51 | 1007.9 |
| 20260506120336 | 15 | 335 | 0.0 | 11.3 | 0.00 | 0.00 | 0.00 | 50 | 1007.9 |
| 20260506115835 | 15 | 329 | 0.0 | 11.3 | 0.00 | 0.00 | 0.00 | 49 | 1007.9 |
| 20260506115557 | 15 | 260 | 0.0 | 3.2 | 0.00 | 0.00 | 0.00 | 52 | 1007.8 |
| 20260506114835 | 15 | 262 | 0.0 | 1.6 | 0.00 | 0.00 | 0.00 | 50 | 1007.9 |
| 20260506114327 | 15 | 322 | 0.0 | 4.8 | 0.00 | 0.00 | 0.00 | 52 | 1007.9 |
| 20260506113828 | 15 | 12 | 0.0 | 6.4 | 0.00 | 0.00 | 0.00 | 53 | 1007.9 |
| 20260506113315 | 15 | 232 | 0.0 | 6.4 | 0.00 | 0.00 | 0.00 | 51 | 1008.0 |
| 20260506112811 | 15 | 253 | 0.0 | 4.8 | 0.00 | 0.00 | 0.00 | 51 | 1008.0 |
| 20260506112311 | 15 | 281 | 0.0 | 4.8 | 0.00 | 0.00 | 0.00 | 51 | 1007.9 |
| 20260506111813 | 15 | 331 | 0.0 | 1.6 | 0.00 | 0.00 | 0.00 | 53 | 1008.0 |
| 20260506111537 | 15 | 336 | 0.0 | 4.8 | 0.00 | 0.00 | 0.00 | 55 | 1007.8 |
| 20260506110746 | 15 | 281 | 0.0 | 4.8 | 0.00 | 0.00 | 0.00 | 53 | 1007.9 |
| 20260506110243 | 14 | 265 | 0.0 | 1.6 | 0.00 | 0.00 | 0.00 | 55 | 1007.9 |
| 20260506105740 | 14 | 282 | 0.0 | 4.8 | 0.00 | 0.00 | 0.00 | 55 | 1007.8 |
| 20260506105237 | 14 | 46 | 0.0 | 9.7 | 0.00 | 0.00 | 0.00 | 57 | 1007.9 |
| 20260506104736 | 14 | 296 | 0.0 | 9.7 | 0.00 | 0.00 | 0.00 | 59 | 1008.0 |
| 20260506104235 | 14 | 350 | 0.0 | 6.4 | 0.00 | 0.00 | 0.00 | 59 | 1007.9 |
| 20260506103735 | 14 | 350 | 0.0 | 4.8 | 0.00 | 0.00 | 0.00 | 61 | 1007.8 |
| 20260506103236 | 14 | 315 | 0.0 | 4.8 | 0.00 | 0.00 | 0.00 | 61 | 1007.7 |
| 20260506102727 | 14 | 329 | 0.0 | 1.6 | 0.00 | 0.00 | 0.00 | 61 | 1007.7 |
| 20260506102226 | 14 | 95 | 0.0 | 8.0 | 0.00 | 0.00 | 0.00 | 61 | 1007.8 |
| 20260506101729 | 13 | 315 | 0.0 | 8.0 | 0.00 | 0.00 | 0.00 | 60 | 1007.9 |
| 20260506101214 | 13 | 344 | 0.0 | 1.6 | 0.00 | 0.00 | 0.00 | 61 | 1007.8 |
| 20260506100708 | 13 | 340 | 0.0 | 3.2 | 0.00 | 0.00 | 0.00 | 61 | 1007.9 |
| 20260506100209 | 13 | 317 | 0.0 | 3.2 | 0.00 | 0.00 | 0.00 | 61 | 1007.7 |
| 20260506095654 | 13 | 9 | 0.0 | 3.2 | 0.00 | 0.00 | 0.00 | 62 | 1007.8 |
| 20260506095147 | 13 | 250 | 0.0 | 4.8 | 0.00 | 0.00 | 0.00 | 62 | 1007.7 |
| 20260506094643 | 13 | 323 | 0.0 | 4.8 | 0.00 | 0.00 | 0.00 | 62 | 1007.7 |
| 20260506094145 | 13 | 55 | 0.0 | 1.6 | 0.00 | 0.00 | 0.00 | 61 | 1007.6 |
| 20260506094123 | 13 | 328 | 0.0 | 1.6 | 0.00 | 0.00 | 0.00 | 61 | 1007.6 |
| 20260506093143 | 13 | 5 | 0.0 | 1.6 | 0.00 | 0.00 | 0.00 | 60 | 1007.6 |
| 20260506092640 | 13 | 355 | 0.0 | 1.6 | 0.00 | 0.00 | 0.00 | 58 | 1007.5 |
| 20260506092139 | 13 | 241 | 0.0 | 6.4 | 0.00 | 0.00 | 0.00 | 55 | 1007.6 |
| 20260506091635 | 13 | 267 | 0.0 | 6.4 | 0.00 | 0.00 | 0.00 | 59 | 1007.6 |
| 20260506091131 | 13 | 257 | 0.0 | 3.2 | 0.00 | 0.00 | 0.00 | 59 | 1007.7 |
| 20260506090850 | 13 | 355 | 0.0 | 3.2 | 0.00 | 0.00 | 0.00 | 60 | 1007.6 |
| 20260506090132 | 13 | 209 | 0.0 | 1.6 | 0.00 | 0.00 | 0.00 | 59 | 1007.6 |
| 20260506085627 | 13 | 5 | 0.0 | 1.6 | 0.00 | 0.00 | 0.00 | 57 | 1007.5 |
| 20260506085126 | 13 | 231 | 0.0 | 1.6 | 0.00 | 0.00 | 0.00 | 51 | 1007.5 |
| 20260506084603 | 12 | 338 | 0.0 | 4.8 | 0.00 | 0.00 | 0.00 | 51 | 1007.4 |
| 20260506084059 | 12 | 308 | 0.0 | 4.8 | 0.00 | 0.00 | 0.00 | 52 | 1007.5 |
| 20260506083557 | 12 | 339 | 0.0 | 1.6 | 0.00 | 0.00 | 0.00 | 51 | 1007.5 |
| 20260506083050 | 12 | 5 | 0.0 | 3.2 | 0.00 | 0.00 | 0.00 | 48 | 1007.5 |
| 20260506082540 | 12 | 336 | 0.0 | 4.8 | 0.00 | 0.00 | 0.00 | 43 | 1007.4 |
| 20260506082307 | 12 | 201 | 0.0 | 4.8 | 0.00 | 0.00 | 0.00 | 42 | 1007.4 |
| 20260506081536 | 12 | 209 | 0.0 | 1.6 | 0.00 | 0.00 | 0.00 | 44 | 1007.4 |
| 20260506081251 | 12 | 248 | 0.0 | 3.2 | 0.00 | 0.00 | 0.00 | 46 | 1007.5 |
| 20260506080536 | 12 | 266 | 0.0 | 3.2 | 0.00 | 0.00 | 0.00 | 43 | 1007.4 |